Retour au catalogue

COSMOS 2088

ActifMilitaireLEO
NORAD 20720·PAYLOAD·🇷🇺 Russia

Lancé Jul 30, 1990 depuis Plesetsk Cosmodrome

Loading…

Prochains Passages (prochaines 24 heures)

TLE

FraisSource: Space-Track

Époque: Sep 14, 2026, 19:05 UTC

1 20720U 90066A   26257.79540019 -.00000025  00000-0 -55752-4 0  9996
2 20720  73.5951 270.6905 0024704 133.7263  38.8843 12.40784304636264

Suivez COSMOS 2088 en temps réel avec AllMySat

Download on the App Store